Saint Bonnet de Bellac- Haute Vienne - France
Donnes mto: dimanche, 22/01/2012
Date Horaire Temp. E. Hum. E. P.atmo. Pluie Vent Direction Direction Ensoleilleme Solaire P. de rose Temp au vent Rafales
22/01/2012 00:00 9,2 C 96 % 1023,4 hPa 0,0 mm 4,3 km/h (1 Bft) SO 225 0 min 0 W/m 8,6 C 9,2 C 13,7 km/h (3 Bft)
22/01/2012 00:10 9,2 C 96 % 1023,6 hPa 0,0 mm 5,8 km/h (2 Bft) O-SO 247 0 min 0 W/m 8,6 C 8,6 C 5,8 km/h (2 Bft)
22/01/2012 00:20 9,1 C 96 % 1023,5 hPa 0,0 mm 2,5 km/h (1 Bft) O 270 0 min 0 W/m 8,5 C 9,1 C 2,5 km/h (1 Bft)
22/01/2012 00:30 9,1 C 96 % 1023,5 hPa 0,0 mm 1,8 km/h (1 Bft) O-NO 292 0 min 0 W/m 8,5 C 9,1 C 1,8 km/h (1 Bft)
22/01/2012 00:40 9,1 C 96 % 1023,5 hPa 0,0 mm 0,0 km/h (0 Bft) SO 225 0 min 0 W/m 8,5 C 9,1 C 4,0 km/h (1 Bft)
22/01/2012 00:50 9,1 C 95 % 1023,4 hPa 0,0 mm 1,1 km/h (1 Bft) O-SO 247 0 min 0 W/m 8,3 C 9,1 C 4,3 km/h (1 Bft)
22/01/2012 01:00 9,1 C 96 % 1023,3 hPa 0,1 mm 0,4 km/h (0 Bft) O 270 0 min 0 W/m 8,5 C 9,1 C 4,7 km/h (1 Bft)
22/01/2012 01:10 9,1 C 96 % 1023,1 hPa 0,0 mm 1,4 km/h (1 Bft) O 270 0 min 0 W/m 8,5 C 9,1 C 6,1 km/h (2 Bft)
22/01/2012 01:20 9,1 C 96 % 1023,0 hPa 0,0 mm 1,1 km/h (1 Bft) O 270 0 min 0 W/m 8,5 C 9,1 C 1,1 km/h (1 Bft)
22/01/2012 01:30 9,1 C 96 % 1022,8 hPa 0,0 mm 6,1 km/h (2 Bft) SO 225 0 min 0 W/m 8,5 C 8,4 C 13,7 km/h (3 Bft)
22/01/2012 01:40 9,1 C 96 % 1022,7 hPa 0,0 mm 6,5 km/h (2 Bft) O-SO 247 0 min 0 W/m 8,5 C 8,3 C 12,6 km/h (3 Bft)
22/01/2012 01:50 9,1 C 96 % 1022,7 hPa 0,0 mm 2,5 km/h (1 Bft) O-SO 247 0 min 0 W/m 8,5 C 9,1 C 3,2 km/h (1 Bft)
22/01/2012 02:02 9,1 C 96 % 1022,6 hPa 0,1 mm 7,2 km/h (2 Bft) O-SO 247 0 min 0 W/m 8,5 C 8,1 C 7,2 km/h (2 Bft)
22/01/2012 02:10 9,0 C 96 % 1022,6 hPa 0,0 mm 2,9 km/h (1 Bft) SO 225 0 min 0 W/m 8,4 C 9,0 C 7,6 km/h (2 Bft)
22/01/2012 02:20 8,9 C 96 % 1022,5 hPa 0,0 mm 5,8 km/h (2 Bft) O 270 0 min 0 W/m 8,3 C 8,3 C 6,5 km/h (2 Bft)
22/01/2012 02:30 8,9 C 96 % 1022,6 hPa 0,0 mm 2,9 km/h (1 Bft) O 270 0 min 0 W/m 8,3 C 8,9 C 2,9 km/h (1 Bft)
22/01/2012 02:40 8,9 C 96 % 1022,5 hPa 0,0 mm 0,7 km/h (0 Bft) O 270 0 min 0 W/m 8,3 C 8,9 C 0,7 km/h (0 Bft)
22/01/2012 02:50 8,9 C 96 % 1022,6 hPa 0,0 mm 0,0 km/h (0 Bft) SO 225 0 min 0 W/m 8,3 C 8,9 C 0,0 km/h (0 Bft)
22/01/2012 03:00 8,9 C 96 % 1022,6 hPa 0,0 mm 0,0 km/h (0 Bft) O 270 0 min 0 W/m 8,3 C 8,9 C 0,0 km/h (0 Bft)
22/01/2012 03:10 8,9 C 96 % 1022,5 hPa 0,0 mm 2,5 km/h (1 Bft) O 270 0 min 0 W/m 8,3 C 8,9 C 4,3 km/h (1 Bft)
22/01/2012 03:20 8,9 C 96 % 1022,4 hPa 0,0 mm 5,0 km/h (1 Bft) O-SO 247 0 min 0 W/m 8,3 C 8,5 C 12,6 km/h (3 Bft)
22/01/2012 03:30 9,0 C 96 % 1022,4 hPa 0,0 mm 1,8 km/h (1 Bft) O-SO 247 0 min 0 W/m 8,4 C 9,0 C 7,2 km/h (2 Bft)
22/01/2012 03:40 9,1 C 96 % 1022,2 hPa 0,0 mm 3,6 km/h (1 Bft) O-SO 247 0 min 0 W/m 8,5 C 9,1 C 4,0 km/h (1 Bft)
22/01/2012 03:50 9,0 C 96 % 1022,2 hPa 0,0 mm 0,7 km/h (0 Bft) O-SO 247 0 min 0 W/m 8,4 C 9,0 C 0,7 km/h (0 Bft)
22/01/2012 04:00 8,9 C 96 % 1022,2 hPa 0,1 mm 1,4 km/h (1 Bft) O-SO 247 0 min 0 W/m 8,3 C 8,9 C 8,3 km/h (2 Bft)
22/01/2012 04:10 8,9 C 96 % 1022,1 hPa 0,0 mm 1,1 km/h (1 Bft) O-SO 247 0 min 0 W/m 8,3 C 8,9 C 1,1 km/h (1 Bft)
22/01/2012 04:20 8,9 C 96 % 1022,1 hPa 0,1 mm 0,7 km/h (0 Bft) O-SO 247 0 min 0 W/m 8,3 C 8,9 C 3,6 km/h (1 Bft)
22/01/2012 04:30 8,9 C 96 % 1022,2 hPa 0,0 mm 2,9 km/h (1 Bft) O 270 0 min 0 W/m 8,3 C 8,9 C 4,7 km/h (1 Bft)
22/01/2012 04:40 8,9 C 96 % 1022,0 hPa 0,0 mm 1,8 km/h (1 Bft) O-NO 292 0 min 0 W/m 8,3 C 8,9 C 9,7 km/h (2 Bft)
22/01/2012 04:50 8,8 C 96 % 1021,7 hPa 0,0 mm 1,1 km/h (1 Bft) O-SO 247 0 min 0 W/m 8,2 C 8,8 C 3,2 km/h (1 Bft)
22/01/2012 05:00 8,7 C 95 % 1021,7 hPa 0,0 mm 0,4 km/h (0 Bft) O 270 0 min 0 W/m 7,9 C 8,7 C 2,9 km/h (1 Bft)
22/01/2012 05:10 8,6 C 95 % 1021,6 hPa 0,0 mm 0,7 km/h (0 Bft) O-SO 247 0 min 0 W/m 7,8 C 8,6 C 0,7 km/h (0 Bft)
22/01/2012 05:20 8,6 C 95 % 1021,7 hPa 0,1 mm 5,8 km/h (2 Bft) O-SO 247 0 min 0 W/m 7,8 C 7,9 C 16,2 km/h (3 Bft)
22/01/2012 05:30 8,6 C 95 % 1021,7 hPa 0,0 mm 0,0 km/h (0 Bft) O 270 0 min 0 W/m 7,8 C 8,6 C 0,0 km/h (0 Bft)
22/01/2012 05:40 8,6 C 95 % 1021,7 hPa 0,0 mm 2,9 km/h (1 Bft) O 270 0 min 0 W/m 7,8 C 8,6 C 4,0 km/h (1 Bft)
22/01/2012 05:50 8,6 C 95 % 1021,7 hPa 0,0 mm 0,7 km/h (0 Bft) O-SO 247 0 min 0 W/m 7,8 C 8,6 C 3,2 km/h (1 Bft)
22/01/2012 06:00 8,6 C 95 % 1021,6 hPa 0,0 mm 0,7 km/h (0 Bft) O 270 0 min 0 W/m 7,8 C 8,6 C 4,0 km/h (1 Bft)
22/01/2012 06:10 8,6 C 95 % 1021,5 hPa 0,0 mm 2,5 km/h (1 Bft) O-NO 292 0 min 0 W/m 7,8 C 8,6 C 5,8 km/h (2 Bft)
22/01/2012 06:20 8,6 C 95 % 1021,6 hPa 0,0 mm 1,4 km/h (1 Bft) O-SO 247 0 min 0 W/m 7,8 C 8,6 C 3,2 km/h (1 Bft)
22/01/2012 06:30 8,6 C 95 % 1021,5 hPa 0,0 mm 0,4 km/h (0 Bft) O 270 0 min 0 W/m 7,8 C 8,6 C 6,5 km/h (2 Bft)
22/01/2012 06:40 8,5 C 95 % 1021,6 hPa 0,0 mm 1,4 km/h (1 Bft) O 270 0 min 0 W/m 7,7 C 8,5 C 4,3 km/h (1 Bft)
22/01/2012 06:50 8,4 C 95 % 1021,5 hPa 0,0 mm 4,3 km/h (1 Bft) O-NO 292 0 min 0 W/m 7,6 C 8,4 C 10,8 km/h (2 Bft)
22/01/2012 07:00 8,4 C 95 % 1021,6 hPa 0,0 mm 0,0 km/h (0 Bft) O-NO 292 0 min 0 W/m 7,6 C 8,4 C 0,0 km/h (0 Bft)
22/01/2012 07:10 8,3 C 95 % 1021,5 hPa 0,1 mm 0,4 km/h (0 Bft) O-SO 247 0 min 0 W/m 7,5 C 8,3 C 3,6 km/h (1 Bft)
22/01/2012 07:20 8,3 C 95 % 1021,5 hPa 0,0 mm 0,0 km/h (0 Bft) O 270 0 min 0 W/m 7,5 C 8,3 C 0,0 km/h (0 Bft)
22/01/2012 07:30 8,3 C 95 % 1021,4 hPa 0,0 mm 0,4 km/h (0 Bft) SO 225 0 min 0 W/m 7,5 C 8,3 C 3,2 km/h (1 Bft)
22/01/2012 07:40 8,3 C 95 % 1021,3 hPa 0,0 mm 2,5 km/h (1 Bft) O 270 0 min 0 W/m 7,5 C 8,3 C 6,5 km/h (2 Bft)
22/01/2012 07:50 8,2 C 95 % 1021,3 hPa 0,0 mm 0,0 km/h (0 Bft) O-SO 247 0 min 0 W/m 7,4 C 8,2 C 0,0 km/h (0 Bft)
22/01/2012 08:00 8,2 C 95 % 1021,4 hPa 0,0 mm 0,0 km/h (0 Bft) O-NO 292 0 min 0 W/m 7,4 C 8,2 C 0,0 km/h (0 Bft)
22/01/2012 08:10 8,1 C 95 % 1021,5 hPa 0,0 mm 2,5 km/h (1 Bft) O 270 0 min 0 W/m 7,3 C 8,1 C 7,2 km/h (2 Bft)
22/01/2012 08:20 8,1 C 95 % 1021,5 hPa 0,0 mm 0,0 km/h (0 Bft) O 270 0 min 0 W/m 7,3 C 8,1 C 0,0 km/h (0 Bft)
22/01/2012 08:30 8,1 C 95 % 1021,6 hPa 0,0 mm 0,0 km/h (0 Bft) O 270 0 min 0 W/m 7,3 C 8,1 C 0,0 km/h (0 Bft)
22/01/2012 08:40 8,0 C 95 % 1021,7 hPa 0,0 mm 0,0 km/h (0 Bft) O 270 0 min 0 W/m 7,2 C 8,0 C 0,0 km/h (0 Bft)
22/01/2012 08:50 8,0 C 95 % 1021,7 hPa 0,0 mm 0,0 km/h (0 Bft) O-SO 247 2 min 0 W/m 7,2 C 8,0 C 0,0 km/h (0 Bft)
22/01/2012 09:00 8,0 C 95 % 1021,7 hPa 0,0 mm 0,0 km/h (0 Bft) O-SO 247 2 min 0 W/m 7,2 C 8,0 C 3,6 km/h (1 Bft)
22/01/2012 09:10 8,0 C 95 % 1021,9 hPa 0,0 mm 2,5 km/h (1 Bft) O-SO 247 2 min 0 W/m 7,2 C 8,0 C 4,3 km/h (1 Bft)
22/01/2012 09:20 8,1 C 95 % 1021,9 hPa 0,0 mm 0,7 km/h (0 Bft) O-SO 247 2 min 0 W/m 7,3 C 8,1 C 3,6 km/h (1 Bft)
22/01/2012 09:30 8,1 C 95 % 1022,0 hPa 0,0 mm 0,7 km/h (0 Bft) O 270 2 min 0 W/m 7,3 C 8,1 C 7,2 km/h (2 Bft)
22/01/2012 09:40 8,1 C 95 % 1021,9 hPa 0,1 mm 2,2 km/h (1 Bft) O-SO 247 2 min 0 W/m 7,3 C 8,1 C 2,2 km/h (1 Bft)
22/01/2012 09:50 8,1 C 95 % 1021,9 hPa 0,0 mm 0,0 km/h (0 Bft) O-SO 247 2 min 0 W/m 7,3 C 8,1 C 0,0 km/h (0 Bft)
22/01/2012 10:00 8,2 C 95 % 1022,0 hPa 0,0 mm 1,1 km/h (1 Bft) O 270 2 min 0 W/m 7,4 C 8,2 C 6,1 km/h (2 Bft)
22/01/2012 10:10 8,2 C 95 % 1021,7 hPa 0,0 mm 1,8 km/h (1 Bft) O 270 2 min 0 W/m 7,4 C 8,2 C 3,2 km/h (1 Bft)
22/01/2012 10:20 8,2 C 95 % 1021,7 hPa 0,0 mm 0,0 km/h (0 Bft) O-SO 247 2 min 0 W/m 7,4 C 8,2 C 0,0 km/h (0 Bft)
22/01/2012 10:30 8,3 C 95 % 1021,9 hPa 0,0 mm 1,4 km/h (1 Bft) O-SO 247 2 min 0 W/m 7,5 C 8,3 C 4,3 km/h (1 Bft)
22/01/2012 10:40 8,3 C 95 % 1021,9 hPa 0,0 mm 2,9 km/h (1 Bft) O 270 2 min 0 W/m 7,5 C 8,3 C 8,6 km/h (2 Bft)
22/01/2012 10:50 8,3 C 95 % 1022,0 hPa 0,0 mm 2,2 km/h (1 Bft) O-SO 247 2 min 0 W/m 7,5 C 8,3 C 3,2 km/h (1 Bft)
22/01/2012 11:00 8,4 C 95 % 1022,0 hPa 0,0 mm 0,7 km/h (0 Bft) O 270 2 min 0 W/m 7,6 C 8,4 C 3,6 km/h (1 Bft)
22/01/2012 11:10 8,5 C 95 % 1022,0 hPa 0,0 mm 2,9 km/h (1 Bft) SO 225 2 min 0 W/m 7,7 C 8,5 C 6,1 km/h (2 Bft)
22/01/2012 11:20 8,5 C 95 % 1022,1 hPa 0,0 mm 0,7 km/h (0 Bft) O 270 2 min 0 W/m 7,7 C 8,5 C 4,0 km/h (1 Bft)
22/01/2012 11:30 8,6 C 95 % 1022,2 hPa 0,0 mm 1,4 km/h (1 Bft) O 270 2 min 0 W/m 7,8 C 8,6 C 1,4 km/h (1 Bft)
22/01/2012 11:40 8,6 C 95 % 1022,2 hPa 0,0 mm 0,4 km/h (0 Bft) O-SO 247 2 min 0 W/m 7,8 C 8,6 C 4,0 km/h (1 Bft)
22/01/2012 11:50 8,6 C 95 % 1022,2 hPa 0,0 mm 1,8 km/h (1 Bft) O 270 2 min 0 W/m 7,8 C 8,6 C 7,6 km/h (2 Bft)
22/01/2012 12:00 8,6 C 95 % 1022,1 hPa 0,0 mm 4,7 km/h (1 Bft) O-NO 292 2 min 0 W/m 7,8 C 8,3 C 9,0 km/h (2 Bft)
22/01/2012 12:10 8,6 C 95 % 1022,0 hPa 0,0 mm 0,7 km/h (0 Bft) O 270 2 min 0 W/m 7,8 C 8,6 C 3,6 km/h (1 Bft)
22/01/2012 12:20 8,7 C 95 % 1022,0 hPa 0,0 mm 0,4 km/h (0 Bft) O-SO 247 2 min 0 W/m 7,9 C 8,7 C 0,4 km/h (0 Bft)
22/01/2012 12:30 8,6 C 95 % 1022,0 hPa 0,0 mm 0,0 km/h (0 Bft) O-SO 247 2 min 0 W/m 7,8 C 8,6 C 0,0 km/h (0 Bft)
22/01/2012 12:40 8,6 C 95 % 1021,9 hPa 0,0 mm 2,5 km/h (1 Bft) SO 225 2 min 0 W/m 7,8 C 8,6 C 6,8 km/h (2 Bft)
22/01/2012 12:50 8,5 C 95 % 1021,8 hPa 0,0 mm 1,1 km/h (1 Bft) SO 225 2 min 0 W/m 7,7 C 8,5 C 1,1 km/h (1 Bft)
22/01/2012 13:00 8,5 C 95 % 1021,7 hPa 0,0 mm 1,4 km/h (1 Bft) O-SO 247 2 min 0 W/m 7,7 C 8,5 C 2,9 km/h (1 Bft)
22/01/2012 13:10 8,6 C 95 % 1021,7 hPa 0,0 mm 0,4 km/h (0 Bft) O-SO 247 2 min 0 W/m 7,8 C 8,6 C 0,4 km/h (0 Bft)
22/01/2012 13:20 8,6 C 95 % 1021,5 hPa 0,0 mm 1,4 km/h (1 Bft) O 270 2 min 0 W/m 7,8 C 8,6 C 1,4 km/h (1 Bft)
22/01/2012 13:30 8,6 C 95 % 1021,4 hPa 0,0 mm 0,7 km/h (0 Bft) O 270 2 min 0 W/m 7,8 C 8,6 C 1,4 km/h (1 Bft)
22/01/2012 13:40 8,8 C 94 % 1021,2 hPa 0,0 mm 0,0 km/h (0 Bft) O-SO 247 2 min 0 W/m 7,9 C 8,8 C 0,0 km/h (0 Bft)
22/01/2012 13:50 8,6 C 94 % 1021,3 hPa 0,0 mm 3,6 km/h (1 Bft) S-SO 202 2 min 0 W/m 7,7 C 8,6 C 8,6 km/h (2 Bft)
22/01/2012 14:00 8,5 C 94 % 1021,3 hPa 0,0 mm 6,1 km/h (2 Bft) S-SO 202 2 min 0 W/m 7,6 C 7,7 C 12,2 km/h (2 Bft)
22/01/2012 14:10 8,5 C 94 % 1021,2 hPa 0,0 mm 0,4 km/h (0 Bft) O 270 2 min 0 W/m 7,6 C 8,5 C 1,4 km/h (1 Bft)
22/01/2012 14:20 8,5 C 94 % 1021,2 hPa 0,0 mm 0,0 km/h (0 Bft) O 270 2 min 0 W/m 7,6 C 8,5 C 0,0 km/h (0 Bft)
22/01/2012 14:30 8,4 C 93 % 1021,2 hPa 0,0 mm 3,6 km/h (1 Bft) O-SO 247 2 min 0 W/m 7,3 C 8,4 C 7,6 km/h (2 Bft)
22/01/2012 14:40 8,3 C 93 % 1021,4 hPa 0,0 mm 1,1 km/h (1 Bft) O-SO 247 2 min 0 W/m 7,2 C 8,3 C 4,3 km/h (1 Bft)
22/01/2012 14:50 8,3 C 93 % 1021,2 hPa 0,0 mm 0,4 km/h (0 Bft) O 270 2 min 0 W/m 7,2 C 8,3 C 3,6 km/h (1 Bft)
22/01/2012 15:00 8,2 C 92 % 1021,2 hPa 0,0 mm 3,2 km/h (1 Bft) O-SO 247 2 min 0 W/m 7,0 C 8,2 C 9,0 km/h (2 Bft)
22/01/2012 15:10 8,1 C 92 % 1021,3 hPa 0,0 mm 0,0 km/h (0 Bft) O-SO 247 2 min 0 W/m 6,9 C 8,1 C 3,2 km/h (1 Bft)
22/01/2012 15:20 8,1 C 92 % 1021,3 hPa 0,0 mm 4,0 km/h (1 Bft) O 270 2 min 0 W/m 6,9 C 8,1 C 8,6 km/h (2 Bft)
22/01/2012 15:30 8,0 C 92 % 1021,3 hPa 0,0 mm 2,9 km/h (1 Bft) O-SO 247 2 min 0 W/m 6,8 C 8,0 C 3,6 km/h (1 Bft)
22/01/2012 15:40 7,9 C 92 % 1021,2 hPa 0,0 mm 1,4 km/h (1 Bft) O-NO 292 2 min 0 W/m 6,7 C 7,9 C 1,4 km/h (1 Bft)
22/01/2012 15:50 8,0 C 92 % 1021,2 hPa 0,0 mm 1,4 km/h (1 Bft) O 270 2 min 0 W/m 6,8 C 8,0 C 7,9 km/h (2 Bft)
22/01/2012 16:00 7,9 C 92 % 1021,3 hPa 0,0 mm 0,0 km/h (0 Bft) O 270 2 min 0 W/m 6,7 C 7,9 C 0,0 km/h (0 Bft)
22/01/2012 16:10 7,9 C 92 % 1021,4 hPa 0,0 mm 0,0 km/h (0 Bft) O-NO 292 2 min 0 W/m 6,7 C 7,9 C 0,0 km/h (0 Bft)
_ Min-Heure 16:10 16:10 15:50 - 16:10 - - - - 16:10 14:00 16:10
Minimum _ 7,9 C 92 % 1021,2 hPa - 0,0 km/h (0 Bft) - - - - 6,7 C 7,7 C 0,0 km/h (0 Bft)
_ Max-Heure 00:10 04:50 00:10 09:40 02:02 - - 16:10 16:10 00:10 00:00 05:20
Maximum _ 9,2 C 96 % 1023,6 hPa 0,1 mm 7,2 km/h
O-SO (2 Bft)
- - 2 min 0 W/m 8,6 C 9,2 C 16,2 km/h
O-SO (3 Bft)
Moyenne _ 8,6 C 95 % 1021,9 hPa #0,7 mm 1,7 km/h (1 Bft) O-SO - #1:30 h 0 W/m 7,8 C 8,5 C 4,1 km/h (1 Bft)
Saint Bonnet de Bellac- Haute Vienne - France